Strona główna
METAR-TAF:

METAR-TAF

Lotnisko :

Port lotniczy Flores

Flores, Azory, Portugalia

Szerokość geograficzna: 39-27N, Długość geograficzna: 031-08W, wysokość: 28 m

Aktualna obserwacja pogody

Raport powstał 9 godziny i 20 minut temu, godzina 22:00 UTC
Wiatr 6 kt od południe
Temperatura 15°C
Wilgotność 63%
Ciśnienie 1021 hPa
Widzialność 10 km lub więcej
Mało chmury na wysokości 2200 ft

METAR: LPFL 182200Z 19006KT 9999 FEW022 15/08 Q1021

czas: 06:20 (07:20 UTC)


TAF: brakujący

Obserwacja i prognoza pogody dla ponad 4000 lotnisk (raport METAR i TAF).

Dostępne stacje oznaczono żółtymi i czerwonymi punktami na mapie.

Najedź kursorem aby zobaczyć nazwę stacji.

Kliknij aby zobaczyć obserwacje i prognozy pogody.

Aby zmienić mapę: kliknij na zielony przycisk z czarnym krzyżykiem, aby powiększyć; na zielony przycisk z myślnikiem, aby pomniejszyć; na zielone strzałki, aby przejść do map sąsiednich.


METAR-TAF: